Flag for Sweden Weather past 2 weeks in Norrköping, Sweden

Now
43 °F

Quite cool.


Feels Like: 39 °F
Forecast: 44 / 59 °F
Wind: 7 mph from Southwest

Location: Norrkoping Airport

Current Time: May 27, 2015 at 6:15:11 AM

Latest Report: May 27, 2015 at 5:20 AM


Visibility: N/A

Pressure: 29.80 "Hg

Humidity: 100%

Dew point: 43 °F

Location of NorrköpingLocation

Historic Weather in Norrköping — Graph

°F

Norrköping temperature yesterday

Maximum temperature yesterday: 59 °F (at 3:20 PM)
Minimum temperature yesterday: 41 °F (at 5:20 AM)
Average temperature yesterday: 51 °F

Past Weeks' High & Low Weather Summary

 TemperatureHumidityPressure
High63 °F (May 12, 2:20 PM)100% (May 12, 8:50 PM)30.12 "Hg (May 12, 8:50 PM)
Low32 °F (May 16, 4:50 AM)29% (May 23, 3:20 PM)29.50 "Hg (May 13, 2:20 AM)
Average50 °F72%29.81 "Hg
* Reported May 12 4:20 AM — May 27 4:50 AM, Norrköping, Weather by CustomWeather, © 2015

Note: Actual official high and low records may vary slightly from our data, if they occured in-between our weather recording intervals... More about our weather records

Advertising

Norrköping weather history for previous 24 hours

 ConditionsComfort  
Time TempWeatherWind HumidityBarometerVisibility
4:50 AM
Wed, May 27
43 °FQuite cool.6 mph93%29.80 "HgN/A
4:20 AM43 °FQuite cool.7 mph93%29.80 "HgN/A
3:50 AM43 °FQuite cool.7 mph93%29.80 "HgN/A
3:20 AM45 °FQuite cool.9 mph93%29.80 "HgN/A
2:50 AM45 °FPassing clouds.8 mph93%29.80 "HgN/A
2:20 AM46 °FPassing clouds.9 mph87%29.80 "HgN/A
1:50 AM48 °FPassing clouds.9 mph82%29.80 "HgN/A
1:20 AM46 °FOvercast.9 mph93%29.80 "HgN/A
12:50 AM45 °FPassing clouds.8 mph93%29.80 "HgN/A
12:20 AM46 °FCool.6 mph87%29.77 "HgN/A
11:20 PM
Tue, May 26
48 °FCool.8 mph82%29.77 "HgN/A
10:50 PM48 °FPassing clouds.9 mph82%29.77 "HgN/A
10:20 PM50 °FLight rain. Cloudy.13 mph71%29.77 "HgN/A
9:50 PM50 °FSunny.9 mph67%29.77 "Hg10 mi
9:20 PM50 °FSunny.8 mph71%29.77 "Hg10 mi
8:50 PM52 °FSunny.10 mph62%29.77 "Hg10 mi
8:20 PM54 °FSunny.13 mph58%29.77 "Hg10 mi
7:50 PM54 °FSunny.12 mph58%29.77 "Hg10 mi
7:20 PM55 °FSunny.14 mph55%29.77 "Hg10 mi
6:50 PM55 °FPassing clouds.14 mph59%29.77 "HgN/A
6:20 PM55 °FSunny.14 mph51%29.74 "Hg10 mi
5:50 PM55 °FSunny.17 mph51%29.74 "Hg10 mi
5:20 PM57 °FSunny.10 mph51%29.74 "Hg10 mi
4:50 PM55 °FSunny.12 mph55%29.74 "Hg10 mi
4:20 PM55 °FSunny.15 mph55%29.77 "Hg10 mi
3:50 PM57 °FSunny.14 mph48%29.77 "Hg10 mi
3:20 PM59 °FPassing clouds.13 mph39%29.74 "HgN/A
2:50 PM57 °FSunny.13 mph48%29.77 "Hg10 mi
2:20 PM55 °FBroken clouds.10 mph55%29.77 "HgN/A
1:50 PM57 °FBroken clouds.8 mph55%29.77 "HgN/A
1:20 PM57 °FBroken clouds.12 mph55%29.77 "HgN/A
12:50 PM55 °FBroken clouds.8 mph59%29.77 "HgN/A
12:20 PM55 °FBroken clouds.9 mph63%29.77 "HgN/A
11:50 AM55 °FBroken clouds.8 mph59%29.77 "HgN/A
11:20 AM55 °FBroken clouds.10 mph59%29.77 "HgN/A
10:50 AM54 °FBroken clouds.8 mph58%29.80 "HgN/A
10:20 AM52 °FBroken clouds.7 mph67%29.80 "HgN/A
9:50 AM54 °FBroken clouds.8 mph67%29.80 "HgN/A
9:20 AM52 °FPartly sunny.8 mph67%29.80 "HgN/A
8:50 AM50 °FSunny.7 mph71%29.80 "Hg10 mi
8:20 AM48 °FPassing clouds.5 mph76%29.80 "HgN/A
7:50 AM48 °FSunny.5 mph76%29.80 "Hg10 mi
7:20 AM48 °FSunny.5 mph82%29.80 "Hg10 mi
6:50 AM46 °FSunny.2 mph87%29.80 "Hg10 mi
6:20 AM45 °FOvercast.No wind93%29.80 "HgN/A
Weather by CustomWeather, © 2015

See weather overviewHow to use our weather pages